FW2848 Weather Reports


Display with metric or nautical units.
time (UTC)temp
F
wind
direction
speed
MPH
gust
MPH
rain 1hr
in
rain 24hr
in
rain mn
in
humidity
%
barometer
mb
20260506091033 52 0 3.0 6.0 0.00 0.00 0.00 86 1010.2
20260506090531 52 0 2.0 5.0 0.00 0.00 0.00 85 1010.2
20260506090031 52 0 2.0 6.0 0.00 0.00 0.00 85 1010.2
20260506085824 52 351 4.0 6.0 0.00 0.00 0.00 85 1010.2
20260506085325 52 358 4.0 6.0 0.00 0.00 0.00 85 1010.3
20260506084531 52 0 2.0 4.0 0.00 0.00 0.00 85 1010.0
20260506084033 52 21 1.0 5.0 0.00 0.00 0.00 85 1010.1
20260506083814 52 21 1.0 6.0 0.00 0.00 0.00 85 1009.9
20260506083031 52 49 3.0 7.0 0.00 0.00 0.00 85 1010.0
20260506082532 52 0 5.0 7.0 0.00 0.00 0.00 85 1009.9
20260506082034 52 347 3.0 5.0 0.00 0.00 0.00 85 1009.9
20260506081530 0 23 3.0 9.0 0.00 0.00 0.00 1010.1
20260506081031 0 355 4.0 9.0 0.00 0.00 0.00 1010.0
20260506080531 53 348 5.0 9.0 0.00 0.00 0.00 84 1010.1
20260506073528 53 13 2.0 6.0 0.00 0.00 0.00 84 1010.1
20260506073027 53 0 2.0 6.0 0.00 0.00 0.00 84 1010.1
20260506072528 54 35 2.0 4.0 0.00 0.00 0.00 83 1009.9
20260506072028 54 10 3.0 9.0 0.00 0.00 0.00 83 1010.1
20260506071528 54 10 3.0 9.0 0.00 0.00 0.00 83 1010.1
20260506071028 54 7 4.0 5.0 0.00 0.00 0.00 83 1010.1
20260506070528 54 27 2.0 5.0 0.00 0.00 0.00 83 1010.0
20260506062026 56 23 5.0 10.0 0.00 0.00 0.00 80 1009.9
20260506061527 56 38 7.0 10.0 0.00 0.00 0.00 79 1009.9
20260506061028 56 21 5.0 10.0 0.00 0.00 0.00 79 1009.8
20260506060602 56 23 6.0 11.0 0.00 0.00 0.00 78 1009.6
20260506051022 59 42 3.0 10.0 0.00 0.00 0.00 74 1008.9
20260506050523 59 68 5.0 10.0 0.00 0.00 0.00 74 1008.7
20260506044523 60 39 6.0 15.0 0.00 0.00 0.00 71 1008.5
20260506044319 60 31 9.0 15.0 0.00 0.00 0.00 70 1008.6
20260506043522 61 42 10.0 15.0 0.00 0.00 0.00 70 1008.5
20260506043021 61 42 10.0 13.0 0.00 0.00 0.00 69 1008.5
20260506042523 62 27 7.0 10.0 0.00 0.00 0.00 69 1008.7
20260506042313 62 27 7.0 10.0 0.00 0.00 0.00 69 1008.6
20260506041521 63 16 5.0 6.0 0.00 0.00 0.00 69 1008.6
20260506041021 63 30 3.0 7.0 0.00 0.00 0.00 68 1008.6
20260506040521 63 30 4.0 7.0 0.00 0.00 0.00 68 1008.7
20260506040020 64 16 4.0 14.0 0.00 0.00 0.00 67 1008.5
20260506035522 64 10 7.0 14.0 0.00 0.00 0.00 66 1008.6
20260506035020 64 28 7.0 10.0 0.00 0.00 0.00 66 1008.5
20260506034521 65 13 4.0 7.0 0.00 0.00 0.00 67 1008.5
20260506034020 65 25 5.0 7.0 0.00 0.00 0.00 67 1008.4
20260506033520 65 58 2.0 6.0 0.00 0.00 0.00 67 1008.3
20260506033022 0 24 4.0 6.0 0.00 0.00 0.00 1008.1
20260506032804 67 51 3.0 6.0 0.00 0.00 0.00 65 1008.2
20260506032020 67 20 0.0 3.0 0.00 0.00 0.00 65 1008.2
20260506031520 67 20 2.0 4.0 0.00 0.00 0.00 65 1008.1
20260506031316 67 20 2.0 4.0 0.00 0.00 0.00 65 1008.0
20260506030521 67 18 2.0 5.0 0.00 0.00 0.00 64 1007.9
20260506030020 67 18 2.0 5.0 0.00 0.00 0.00 64 1007.9
20260506025520 0 25 4.0 6.0 0.00 0.00 0.00 1007.8
20260506025019 0 42 3.0 6.0 0.00 0.00 0.00 1007.8
20260506024519 68 42 1.0 4.0 0.00 0.00 0.00 63 1007.6
20260506024018 68 42 2.0 5.0 0.00 0.00 0.00 63 1007.7
20260506023813 69 42 4.0 5.0 0.00 0.00 0.00 62 1007.5
20260506023017 69 42 3.0 5.0 0.00 0.00 0.00 61 1007.5
20260506022519 69 42 2.0 5.0 0.00 0.00 0.00 61 1007.1
20260506022018 70 28 3.0 5.0 0.00 0.00 0.00 61 1007.1
20260506021520 70 28 4.0 5.0 0.00 0.00 0.00 61 1007.1
20260506021019 70 28 4.0 5.0 0.00 0.00 0.00 61 1007.0
20260506020518 71 34 2.0 5.0 0.00 0.00 0.00 60 1006.9
20260506020017 71 34 3.0 5.0 0.00 0.00 0.00 60 1006.9
20260506015518 71 42 4.0 5.0 0.00 0.00 0.00 59 1006.7
20260506015310 72 42 4.0 5.0 0.00 0.00 0.00 59 1006.8
20260506014519 72 48 2.0 4.0 0.00 0.00 0.00 58 1006.6
20260506014021 73 69 2.0 6.0 0.00 0.00 0.00 57 1006.5
20260506013517 73 41 4.0 7.0 0.00 0.00 0.00 57 1006.3
20260506013017 73 69 4.0 7.0 0.00 0.00 0.00 56 1006.3
20260506012519 74 35 4.0 9.0 0.00 0.00 0.00 55 1006.3
20260506012326 74 45 5.0 9.0 0.00 0.00 0.00 55 1006.3
20260506011519 74 47 6.0 9.0 0.00 0.00 0.00 55 1006.1
20260506011018 75 47 6.0 9.0 0.00 0.00 0.00 55 1006.0
20260506010525 75 42 3.0 6.0 0.00 0.00 0.00 52 1005.8
20260506010017 0 35 3.0 7.0 0.00 0.00 0.00 1005.7
20260506005516 76 35 5.0 11.0 0.00 0.00 0.00 52 1005.7
20260506005017 76 25 8.0 11.0 0.00 0.00 0.00 52 1005.7
20260506004516 76 35 8.0 13.0 0.00 0.00 0.00 52 1005.8
20260506004017 77 45 9.0 13.0 0.00 0.00 0.00 52 1005.7
20260506003517 78 20 6.0 10.0 0.00 0.00 0.00 52 1005.4
20260506003310 78 21 4.0 13.0 0.00 0.00 0.00 51 1005.5
20260506002515 78 20 8.0 15.0 0.00 0.00 0.00 50 1005.4
20260506002015 79 34 11.0 15.0 0.00 0.00 0.00 50 1005.1
20260506001515 79 37 11.0 15.0 0.00 0.00 0.00 50 1005.1
20260506001017 0 23 9.0 12.0 0.00 0.00 0.00 1004.9
20260506000515 82 28 7.0 11.0 0.00 0.00 0.00 46 1004.8
20260506000018 82 14 8.0 14.0 0.00 0.00 0.00 46 1004.8
20260505235515 82 37 10.0 14.0 0.00 0.00 0.00 45 1004.9
20260505235015 83 32 9.0 13.0 0.00 0.00 0.00 42 1004.6
20260505234516 83 35 3.0 7.0 0.00 0.00 0.00 40 1004.3
20260505234014 84 32 5.0 6.0 0.00 0.00 0.00 40 1004.1
20260505233516 84 334 4.0 6.0 0.00 0.00 0.00 38 1004.4
20260505233016 84 343 3.0 6.0 0.00 0.00 0.00 38 1004.4
20260505232517 85 20 5.0 9.0 0.00 0.00 0.00 38 1004.2
20260505232015 85 20 5.0 10.0 0.00 0.00 0.00 36 1004.1
20260505231514 85 18 6.0 11.0 0.00 0.00 0.00 36 1004.1
20260505231014 86 0 8.0 11.0 0.00 0.00 0.00 36 1004.2
20260505230515 86 319 5.0 15.0 0.00 0.00 0.00 37 1004.3
20260505230014 86 341 9.0 15.0 0.00 0.00 0.00 35 1004.3
20260505225515 87 345 9.0 14.0 0.00 0.00 0.00 34 1004.3
20260505225013 87 350 10.0 14.0 0.00 0.00 0.00 34 1004.3
20260505224811 88 358 7.0 11.0 0.00 0.00 0.00 34 1004.3
20260505224052 88 343 7.0 11.0 0.00 0.00 0.00 33 1004.1
20260505223015 89 326 5.0 14.0 0.00 0.00 0.00 31 1003.9
20260505222806 89 345 9.0 14.0 0.00 0.00 0.00 31 1003.9
20260505222013 90 343 8.0 13.0 0.00 0.00 0.00 31 1003.8
20260505221804 91 314 6.0 13.0 0.00 0.00 0.00 30 1003.6
20260505221016 91 4 8.0 14.0 0.00 0.00 0.00 29 1003.6
20260505220513 92 324 11.0 14.0 0.00 0.00 0.00 28 1003.2
20260505220012 92 275 5.0 9.0 0.00 0.00 0.00 28 1003.5
20260505215804 92 347 5.0 10.0 0.00 0.00 0.00 24 1003.6
20260505215305 92 269 5.0 10.0 0.00 0.00 0.00 24 1003.5
20260505214511 93 262 5.0 11.0 0.00 0.00 0.00 24 1003.5
20260505214013 93 230 6.0 14.0 0.00 0.00 0.00 25 1003.4
20260505213548 93 254 8.0 14.0 0.00 0.00 0.00 25 1003.4
20260505212512 93 293 4.0 14.0 0.00 0.00 0.00 27 1003.7
20260505212011 93 275 5.0 14.0 0.00 0.00 0.00 32 1003.7
20260505211510 93 189 9.0 14.0 0.00 0.00 0.00 31 1003.7
20260505211011 93 219 6.0 14.0 0.00 0.00 0.00 29 1003.8
20260505210802 93 172 8.0 16.0 0.00 0.00 0.00 29 1004.0
20260505210012 93 255 7.0 16.0 0.00 0.00 0.00 29 1004.0
20260505205511 93 220 5.0 18.0 0.00 0.00 0.00 30 1003.9
20260505205012 0 193 7.0 18.0 0.00 0.00 0.00 1004.0
20260505204510 94 221 8.0 14.0 0.00 0.00 0.00 31 1004.0
20260505204252 94 210 7.0 15.0 0.00 0.00 0.00 31 1004.0
20260505203512 94 227 9.0 17.0 0.00 0.00 0.00 30 1004.0
20260505203011 94 226 8.0 17.0 0.00 0.00 0.00 29 1003.9
20260505202751 0 237 7.0 14.0 0.00 0.00 0.00 1004.0
20260505202011 93 248 5.0 14.0 0.00 0.00 0.00 31 1004.1
20260505201508 93 204 7.0 13.0 0.00 0.00 0.00 31 1004.2
20260505201010 92 230 7.0 13.0 0.00 0.00 0.00 32 1004.4
20260505200509 93 230 7.0 13.0 0.00 0.00 0.00 33 1004.3
20260505200009 93 207 7.0 11.0 0.00 0.00 0.00 33 1004.5
20260505195542 92 179 6.0 11.0 0.00 0.00 0.00 36 1004.5
20260505194755 91 175 8.0 16.0 0.00 0.00 0.00 38 1004.6
20260505194011 91 164 8.0 12.0 0.00 0.00 0.00 36 1004.4
20260505193509 91 192 5.0 13.0 0.00 0.00 0.00 37 1004.6
20260505193010 91 216 9.0 13.0 0.00 0.00 0.00 37 1004.8
20260505192508 90 195 7.0 11.0 0.00 0.00 0.00 37 1004.7
20260505192010 90 250 5.0 11.0 0.00 0.00 0.00 38 1004.8
20260505191508 90 188 4.0 11.0 0.00 0.00 0.00 41 1004.8
20260505191008 89 234 5.0 13.0 0.00 0.00 0.00 41 1004.9
20260505190507 89 219 5.0 13.0 0.00 0.00 0.00 43 1004.9
20260505190008 89 244 7.0 11.0 0.00 0.00 0.00 42 1005.0
20260505185508 89 243 6.0 13.0 0.00 0.00 0.00 43 1004.9
20260505185007 89 155 8.0 13.0 0.00 0.00 0.00 42 1004.9
20260505184803 89 202 6.0 12.0 0.00 0.00 0.00 41 1005.2
20260505184010 89 230 6.0 12.0 0.00 0.00 0.00 41 1005.4
20260505183758 88 268 6.0 10.0 0.00 0.00 0.00 45 1005.4
20260505183007 88 251 6.0 11.0 0.00 0.00 0.00 45 1005.6
20260505182506 88 221 6.0 12.0 0.00 0.00 0.00 44 1005.7
20260505182006 88 235 8.0 12.0 0.00 0.00 0.00 46 1005.8
20260505181506 87 183 6.0 10.0 0.00 0.00 0.00 46 1005.8
20260505181007 87 244 7.0 14.0 0.00 0.00 0.00 47 1005.8
20260505180507 87 224 5.0 14.0 0.00 0.00 0.00 49 1005.8
20260505180006 86 185 5.0 13.0 0.00 0.00 0.00 46 1005.9
20260505175506 86 235 7.0 11.0 0.00 0.00 0.00 48 1005.9
20260505175252 86 231 5.0 11.0 0.00 0.00 0.00 48 1005.9
20260505174507 85 231 5.0 11.0 0.00 0.00 0.00 48 1005.8
20260505174006 85 302 6.0 13.0 0.00 0.00 0.00 49 1005.9
20260505173506 85 214 7.0 13.0 0.00 0.00 0.00 51 1005.8
20260505173005 85 233 8.0 12.0 0.00 0.00 0.00 51 1005.8
20260505172506 84 241 7.0 14.0 0.00 0.00 0.00 50 1005.8
20260505172005 84 230 7.0 14.0 0.00 0.00 0.00 52 1005.9
20260505171842 83 272 8.0 14.0 0.00 0.00 0.00 50 1005.8
20260505170504 83 269 8.0 15.0 0.00 0.00 0.00 55 1005.7
20260505170005 83 217 8.0 15.0 0.00 0.00 0.00 57 1005.8
20260505165503 83 166 6.0 14.0 0.00 0.00 0.00 59 1005.8
20260505165004 82 237 7.0 14.0 0.00 0.00 0.00 58 1005.8
20260505164504 82 159 7.0 14.0 0.00 0.00 0.00 58 1005.7
20260505164006 81 206 7.0 15.0 0.00 0.00 0.00 57 1005.8
20260505163506 81 231 10.0 15.0 0.00 0.00 0.00 57 1005.8
20260505163008 81 237 9.0 16.0 0.00 0.00 0.00 57 1005.9
20260505162504 81 226 10.0 17.0 0.00 0.00 0.00 57 1006.0
20260505162004 80 264 11.0 17.0 0.00 0.00 0.00 59 1006.0
20260505161504 80 226 10.0 16.0 0.00 0.00 0.00 62 1005.9
20260505161004 80 220 7.0 16.0 0.00 0.00 0.00 63 1006.0
20260505160503 79 231 9.0 16.0 0.00 0.00 0.00 64 1006.0
20260505153002 77 243 8.0 15.0 0.00 0.00 0.00 69 1005.6
20260505152502 77 233 8.0 19.0 0.00 0.00 0.00 70 1005.7
20260505152002 76 213 8.0 19.0 0.00 0.00 0.00 70 1005.7
20260505151757 76 228 10.0 18.0 0.00 0.00 0.00 70 1005.6
20260505151004 76 251 10.0 18.0 0.00 0.00 0.00 72 1005.6
20260505150504 76 233 10.0 17.0 0.00 0.00 0.00 71 1005.5
20260505150259 0 221 9.0 17.0 0.00 0.00 0.00 1005.2
20260505140500 73 212 9.0 17.0 0.00 0.00 0.00 77 1004.8
20260505130243 69 206 11.0 18.0 0.00 0.00 0.00 81 1004.3
20260505124958 0 224 10.0 20.0 0.00 0.00 0.00 1004.2
20260505124457 0 202 9.0 17.0 0.00 0.00 0.00 1004.1
20260505123958 0 186 9.0 18.0 0.00 0.00 0.00 1004.1
20260505123458 0 188 10.0 18.0 0.00 0.00 0.00 1004.2
20260505122957 67 230 9.0 17.0 0.00 0.00 0.00 84 1004.1
20260505122526 67 182 7.0 15.0 0.00 0.00 0.00 84 1004.1
20260505121457 67 234 7.0 13.0 0.00 0.00 0.00 85 1004.0
20260505120957 67 259 7.0 17.0 0.00 0.00 0.00 85 1003.9
20260505120458 67 209 6.0 17.0 0.00 0.00 0.00 84 1003.9
20260505120023 0 183 7.0 13.0 0.00 0.00 0.00 1003.9
20260505115244 0 224 7.0 9.0 0.00 0.00 0.00 1003.9
20260505114456 67 195 7.0 15.0 0.00 0.00 0.00 84 1003.8
20260505113955 67 195 7.0 19.0 0.00 0.00 0.00 84 1003.7
20260505113745 67 207 9.0 19.0 0.00 0.00 0.00 84 1003.6
20260505112953 67 248 8.0 17.0 0.00 0.00 0.00 84 1003.6
20260505112747 67 217 9.0 17.0 0.00 0.00 0.00 84 1003.6
20260505111953 67 209 10.0 18.0 0.00 0.00 0.00 83 1003.5
20260505111455 67 224 11.0 18.0 0.00 0.00 0.00 83 1003.6
20260505110954 67 209 9.0 15.0 0.00 0.00 0.00 83 1003.6
20260505110748 67 197 9.0 18.0 0.00 0.00 0.00 83 1003.5
20260505101953 68 169 9.0 15.0 0.00 0.00 0.00 82 1003.5
20260505101453 68 151 8.0 15.0 0.00 0.00 0.00 82 1003.4
20260505100952 68 200 9.0 18.0 0.00 0.00 0.00 82 1003.5
20260505100454 68 172 11.0 22.0 0.00 0.00 0.00 82 1003.5
20260505095953 68 206 11.0 23.0 0.00 0.00 0.00 81 1003.5
20260505095452 68 195 12.0 23.0 0.00 0.00 0.00 81 1003.5
20260505094953 0 227 10.0 22.0 0.00 0.00 0.00 1003.4
20260505094738 0 224 11.0 22.0 0.00 0.00 0.00 1003.2
20260505093953 69 197 11.0 16.0 0.00 0.00 0.00 81 1003.2
20260505093742 69 190 11.0 19.0 0.00 0.00 0.00 81 1003.1
20260505092950 69 195 10.0 19.0 0.00 0.00 0.00 81 1003.1
20260505092452 69 216 11.0 16.0 0.00 0.00 0.00 80 1003.4
20260505091950 69 192 10.0 15.0 0.00 0.00 0.00 80 1003.6
20260505091451 69 190 11.0 17.0 0.00 0.00 0.00 80 1003.5